This is the latest recevied weather packets stored in our database for station/object SK4BW-10. If no packets are shown the sender has not sent any weather packets the latest 1 day(s).
| Time | Temp. | Humidity | Pressure | Rain* | Wind** | Luminosity | Snow |
|---|---|---|---|---|---|---|---|
| 1778048974 | 2.22° C | 61% | 1011.6 hPa | - | - | - | - |
| 1778048074 | 1.67° C | 62% | 1011.4 hPa | - | - | - | - |
| 1778047173 | 1.67° C | 60% | 1011.5 hPa | - | - | - | - |
| 1778046273 | 1.67° C | 64% | 1011.4 hPa | - | - | - | - |
| 1778045372 | 1.67° C | 55% | 1011.3 hPa | - | - | - | - |
| 1778044471 | 1.67° C | 58% | 1011.3 hPa | - | - | - | - |
| 1778043573 | 0.56° C | 54% | 1011.3 hPa | - | - | - | - |
| 1778043570 | 1.11° C | 56% | 1011.2 hPa | - | - | - | - |
| 1778042672 | 1.11° C | 54% | 1011.3 hPa | - | - | - | - |
| 1778042669 | 0.56° C | 54% | 1011.3 hPa | - | - | - | - |
| 1778041768 | 1.11° C | 54% | 1011.3 hPa | - | - | - | - |
| 1778040871 | 0.56° C | 54% | 1011.2 hPa | - | - | - | - |
| 1778040867 | 0.56° C | 55% | 1011.2 hPa | - | - | - | - |
| 1778039066 | 0° C | 56% | 1011 hPa | - | - | - | - |
| 1778037263 | 0° C | 58% | 1010.9 hPa | - | - | - | - |
| 1778036363 | -0.56° C | 59% | 1010.7 hPa | - | - | - | - |
| 1778035462 | -0.56° C | 59% | 1010.7 hPa | - | - | - | - |
| 1778034561 | -0.56° C | 59% | 1010.7 hPa | - | - | - | - |
| 1778033660 | -0.56° C | 59% | 1010.6 hPa | - | - | - | - |
| 1778032759 | 0° C | 57% | 1010.5 hPa | - | - | - | - |
| 1778031858 | -0.56° C | 58% | 1010.4 hPa | - | - | - | - |
| 1778030957 | -0.56° C | 59% | 1010.3 hPa | - | - | - | - |
| 1778030056 | -0.56° C | 60% | 1010.4 hPa | - | - | - | - |
| 1778029155 | -0.56° C | 59% | 1010.2 hPa | - | - | - | - |
| 1778028255 | -0.56° C | 60% | 1010.1 hPa | - | - | - | - |
* Rain since midnight (hover to see other rain measurements)
** Current wind speed in m/s (hover to see current wind gust speed)